| time (UTC) | temp C | wind direction | speed KPH | gust KPH | rain 1hr cm | rain 24hr cm | rain mn cm | humidity % | barometer mb |
| 20260504222408 | 25 | 151 | 6.4 | 29.0 | 0.00 | 0.00 | 0.00 | 47 | 1014.5 |
| 20260504221906 | 25 | 244 | 8.0 | 20.9 | 0.00 | 0.00 | 0.00 | 46 | 1014.4 |
| 20260504221402 | 25 | 198 | 14.5 | 17.7 | 0.00 | 0.00 | 0.00 | 46 | 1014.4 |
| 20260504220859 | 26 | 175 | 14.5 | 22.5 | 0.00 | 0.00 | 0.00 | 45 | 1014.4 |
| 20260504220356 | 26 | 225 | 4.8 | 11.3 | 0.00 | 0.00 | 0.00 | 47 | 1014.4 |
| 20260504215853 | 26 | 269 | 8.0 | 22.5 | 0.00 | 0.00 | 0.00 | 46 | 1014.5 |
| 20260504215349 | 26 | 179 | 12.9 | 17.7 | 0.00 | 0.00 | 0.00 | 45 | 1014.3 |
| 20260504214846 | 26 | 197 | 8.0 | 12.9 | 0.00 | 0.00 | 0.00 | 44 | 1014.4 |
| 20260504214343 | 26 | 165 | 4.8 | 17.7 | 0.00 | 0.00 | 0.00 | 47 | 1014.4 |
| 20260504213839 | 26 | 159 | 8.0 | 14.5 | 0.00 | 0.00 | 0.00 | 47 | 1014.3 |
| 20260504213335 | 26 | 206 | 8.0 | 14.5 | 0.00 | 0.00 | 0.00 | 46 | 1014.4 |
| 20260504212833 | 26 | 191 | 11.3 | 14.5 | 0.00 | 0.00 | 0.00 | 46 | 1014.4 |
| 20260504212329 | 26 | 188 | 11.3 | 25.7 | 0.00 | 0.00 | 0.00 | 45 | 1014.4 |
| 20260504211827 | 26 | 167 | 11.3 | 20.9 | 0.00 | 0.00 | 0.00 | 45 | 1014.6 |
| 20260504211328 | 26 | 199 | 9.7 | 22.5 | 0.00 | 0.00 | 0.00 | 45 | 1014.7 |
| 20260504210825 | 26 | 199 | 8.0 | 16.1 | 0.00 | 0.00 | 0.00 | 44 | 1014.5 |
| 20260504210322 | 26 | 155 | 6.4 | 22.5 | 0.00 | 0.00 | 0.00 | 45 | 1014.5 |
| 20260504205820 | 27 | 201 | 9.7 | 16.1 | 0.00 | 0.00 | 0.00 | 45 | 1014.7 |
| 20260504205317 | 26 | 256 | 4.8 | 16.1 | 0.00 | 0.00 | 0.00 | 45 | 1014.8 |
| 20260504204815 | 26 | 155 | 17.7 | 27.4 | 0.00 | 0.00 | 0.00 | 44 | 1014.9 |
| 20260504204313 | 26 | 186 | 1.6 | 24.1 | 0.00 | 0.00 | 0.00 | 46 | 1015.0 |
| 20260504203813 | 26 | 194 | 8.0 | 22.5 | 0.00 | 0.00 | 0.00 | 44 | 1015.0 |
| 20260504203309 | 26 | 179 | 11.3 | 12.9 | 0.00 | 0.00 | 0.00 | 46 | 1015.0 |
| 20260504202804 | 26 | 148 | 11.3 | 22.5 | 0.00 | 0.00 | 0.00 | 47 | 1015.0 |
| 20260504202304 | 26 | 225 | 4.8 | 20.9 | 0.00 | 0.00 | 0.00 | 45 | 1015.1 |
| 20260504201758 | 26 | 266 | 8.0 | 27.4 | 0.00 | 0.00 | 0.00 | 46 | 1015.3 |
| 20260504201256 | 26 | 174 | 14.5 | 24.1 | 0.00 | 0.00 | 0.00 | 44 | 1015.2 |
| 20260504200754 | 26 | 182 | 19.3 | 22.5 | 0.00 | 0.00 | 0.00 | 44 | 1015.5 |
| 20260504200249 | 26 | 176 | 9.7 | 14.5 | 0.00 | 0.00 | 0.00 | 46 | 1015.5 |
| 20260504195746 | 26 | 180 | 12.9 | 17.7 | 0.00 | 0.00 | 0.00 | 46 | 1015.5 |
| 20260504195242 | 26 | 244 | 9.7 | 12.9 | 0.00 | 0.00 | 0.00 | 46 | 1015.7 |
| 20260504194739 | 26 | 220 | 11.3 | 25.7 | 0.00 | 0.00 | 0.00 | 45 | 1015.8 |
| 20260504194235 | 26 | 245 | 12.9 | 17.7 | 0.00 | 0.00 | 0.00 | 44 | 1015.6 |
| 20260504193731 | 26 | 202 | 4.8 | 20.9 | 0.00 | 0.00 | 0.00 | 47 | 1016.0 |
| 20260504193229 | 26 | 211 | 14.5 | 27.4 | 0.00 | 0.00 | 0.00 | 44 | 1016.0 |
| 20260504192727 | 26 | 187 | 6.4 | 16.1 | 0.00 | 0.00 | 0.00 | 45 | 1016.0 |
| 20260504192225 | 26 | 161 | 8.0 | 17.7 | 0.00 | 0.00 | 0.00 | 44 | 1016.1 |
| 20260504191724 | 26 | 195 | 9.7 | 20.9 | 0.00 | 0.00 | 0.00 | 46 | 1016.1 |
| 20260504191220 | 26 | 222 | 11.3 | 24.1 | 0.00 | 0.00 | 0.00 | 46 | 1016.1 |
| 20260504190715 | 26 | 256 | 8.0 | 20.9 | 0.00 | 0.00 | 0.00 | 47 | 1016.3 |
| 20260504190212 | 26 | 157 | 9.7 | 24.1 | 0.00 | 0.00 | 0.00 | 46 | 1016.2 |
| 20260504185709 | 26 | 212 | 4.8 | 12.9 | 0.00 | 0.00 | 0.00 | 45 | 1016.3 |
| 20260504185205 | 26 | 236 | 6.4 | 12.9 | 0.00 | 0.00 | 0.00 | 49 | 1016.3 |
| 20260504184701 | 26 | 152 | 6.4 | 14.5 | 0.00 | 0.00 | 0.00 | 47 | 1016.4 |
| 20260504184156 | 26 | 258 | 4.8 | 22.5 | 0.00 | 0.00 | 0.00 | 47 | 1016.5 |
| 20260504183653 | 25 | 172 | 1.6 | 12.9 | 0.00 | 0.00 | 0.00 | 48 | 1016.5 |
| 20260504183151 | 26 | 142 | 4.8 | 22.5 | 0.00 | 0.00 | 0.00 | 47 | 1016.6 |
| 20260504182648 | 26 | 179 | 3.2 | 12.9 | 0.00 | 0.00 | 0.00 | 48 | 1016.6 |
| 20260504182146 | 26 | 167 | 9.7 | 17.7 | 0.00 | 0.00 | 0.00 | 47 | 1016.5 |
| 20260504181643 | 26 | 157 | 11.3 | 17.7 | 0.00 | 0.00 | 0.00 | 46 | 1016.7 |
| 20260504181141 | 26 | 232 | 9.7 | 12.9 | 0.00 | 0.00 | 0.00 | 47 | 1016.8 |
| 20260504180640 | 26 | 117 | 4.8 | 12.9 | 0.00 | 0.00 | 0.00 | 49 | 1016.7 |
| 20260504180138 | 26 | 157 | 9.7 | 12.9 | 0.00 | 0.00 | 0.00 | 48 | 1016.9 |
| 20260504175635 | 26 | 252 | 4.8 | 11.3 | 0.00 | 0.00 | 0.00 | 49 | 1016.9 |
| 20260504175131 | 25 | 235 | 12.9 | 33.8 | 0.00 | 0.00 | 0.00 | 50 | 1016.9 |
| 20260504174630 | 25 | 157 | 12.9 | 24.1 | 0.00 | 0.00 | 0.00 | 50 | 1016.8 |
| 20260504174126 | 25 | 222 | 9.7 | 16.1 | 0.00 | 0.00 | 0.00 | 49 | 1017.1 |
| 20260504173623 | 25 | 226 | 6.4 | 16.1 | 0.00 | 0.00 | 0.00 | 52 | 1017.4 |
| 20260504173121 | 25 | 159 | 1.6 | 20.9 | 0.00 | 0.00 | 0.00 | 50 | 1017.2 |
| 20260504172617 | 25 | 166 | 9.7 | 14.5 | 0.00 | 0.00 | 0.00 | 48 | 1017.5 |
| 20260504172114 | 26 | 179 | 8.0 | 27.4 | 0.00 | 0.00 | 0.00 | 48 | 1017.5 |
| 20260504171610 | 26 | 189 | 4.8 | 11.3 | 0.00 | 0.00 | 0.00 | 52 | 1017.4 |
| 20260504171107 | 25 | 161 | 1.6 | 9.7 | 0.00 | 0.00 | 0.00 | 49 | 1017.7 |
| 20260504170603 | 25 | 213 | 8.0 | 22.5 | 0.00 | 0.00 | 0.00 | 52 | 1017.6 |
| 20260504150946 | 22 | 207 | 1.6 | 8.0 | 0.00 | 0.00 | 0.00 | 62 | 1018.6 |
| 20260504150443 | 22 | 80 | 6.4 | 8.0 | 0.00 | 0.00 | 0.00 | 62 | 1018.6 |
| 20260504140910 | 20 | 184 | 1.6 | 12.9 | 0.00 | 0.00 | 0.00 | 67 | 1018.6 |
| 20260504140405 | 20 | 169 | 8.0 | 14.5 | 0.00 | 0.00 | 0.00 | 68 | 1018.8 |
| 20260504130330 | 17 | 181 | 6.4 | 9.7 | 0.00 | 0.00 | 0.00 | 74 | 1018.6 |
| 20260504120254 | 15 | 185 | 0.0 | 8.0 | 0.00 | 0.00 | 0.00 | 77 | 1018.4 |
| 20260504110218 | 15 | 184 | 6.4 | 9.7 | 0.00 | 0.00 | 0.00 | 75 | 1017.9 |
| 20260504100142 | 16 | 191 | 9.7 | 12.9 | 0.00 | 0.00 | 0.00 | 72 | 1018.2 |
| 20260504090104 | 16 | 204 | 3.2 | 8.0 | 0.00 | 0.00 | 0.00 | 72 | 1018.5 |
| 20260504081535 | 15 | 182 | 1.6 | 4.8 | 0.00 | 0.00 | 0.00 | 69 | 1018.5 |
| 20260504081030 | 15 | 153 | 4.8 | 9.7 | 0.00 | 0.00 | 0.00 | 69 | 1018.4 |
| 20260504080527 | 15 | 166 | 4.8 | 8.0 | 0.00 | 0.00 | 0.00 | 69 | 1018.4 |
| 20260504050341 | 14 | 177 | 0.0 | 3.2 | 0.00 | 0.00 | 0.00 | 69 | 1019.9 |
| 20260504045838 | 14 | 168 | 0.0 | 3.2 | 0.00 | 0.00 | 0.00 | 68 | 1019.7 |
| 20260504045338 | 14 | 177 | 1.6 | 3.2 | 0.00 | 0.00 | 0.00 | 68 | 1019.7 |
| 20260504044835 | 14 | 166 | 1.6 | 4.8 | 0.00 | 0.00 | 0.00 | 68 | 1019.7 |
| 20260504044332 | 14 | 185 | 1.6 | 3.2 | 0.00 | 0.00 | 0.00 | 68 | 1019.9 |
| 20260504043830 | 14 | 196 | 3.2 | 8.0 | 0.00 | 0.00 | 0.00 | 67 | 1019.8 |
| 20260504043326 | 14 | 211 | 3.2 | 3.2 | 0.00 | 0.00 | 0.00 | 67 | 1020.0 |
| 20260504042824 | 14 | 185 | 4.8 | 4.8 | 0.00 | 0.00 | 0.00 | 67 | 1019.9 |
| 20260504042320 | 14 | 181 | 3.2 | 9.7 | 0.00 | 0.00 | 0.00 | 66 | 1020.0 |
| 20260504041816 | 14 | 171 | 1.6 | 4.8 | 0.00 | 0.00 | 0.00 | 67 | 1020.0 |
| 20260504041313 | 14 | 177 | 1.6 | 8.0 | 0.00 | 0.00 | 0.00 | 66 | 1019.9 |
| 20260504040809 | 14 | 181 | 3.2 | 8.0 | 0.00 | 0.00 | 0.00 | 66 | 1020.0 |
| 20260504040307 | 15 | 197 | 3.2 | 3.2 | 0.00 | 0.00 | 0.00 | 66 | 1020.1 |
| 20260504035802 | 14 | 175 | 3.2 | 8.0 | 0.00 | 0.00 | 0.00 | 67 | 1020.1 |
| 20260504035300 | 15 | 184 | 3.2 | 4.8 | 0.00 | 0.00 | 0.00 | 66 | 1020.2 |
| 20260504034757 | 15 | 171 | 3.2 | 8.0 | 0.00 | 0.00 | 0.00 | 66 | 1020.2 |
| 20260504034254 | 15 | 166 | 3.2 | 8.0 | 0.00 | 0.00 | 0.00 | 66 | 1020.2 |
| 20260504033752 | 14 | 170 | 4.8 | 8.0 | 0.00 | 0.00 | 0.00 | 66 | 1020.4 |
| 20260504033249 | 14 | 177 | 4.8 | 8.0 | 0.00 | 0.00 | 0.00 | 67 | 1020.3 |
| 20260504032746 | 14 | 193 | 1.6 | 3.2 | 0.00 | 0.00 | 0.00 | 67 | 1020.5 |
| 20260504032243 | 14 | 198 | 3.2 | 3.2 | 0.00 | 0.00 | 0.00 | 68 | 1020.5 |
| 20260504031739 | 13 | 195 | 3.2 | 3.2 | 0.00 | 0.00 | 0.00 | 68 | 1020.6 |
| 20260504031237 | 14 | 185 | 1.6 | 1.6 | 0.00 | 0.00 | 0.00 | 68 | 1020.6 |
| 20260504030732 | 14 | 189 | 3.2 | 3.2 | 0.00 | 0.00 | 0.00 | 67 | 1020.6 |
| 20260504030230 | 14 | 177 | 3.2 | 3.2 | 0.00 | 0.00 | 0.00 | 68 | 1020.6 |
| 20260504025726 | 14 | 175 | 0.0 | 0.0 | 0.00 | 0.00 | 0.00 | 68 | 1020.6 |
| 20260504025223 | 14 | 175 | 0.0 | 0.0 | 0.00 | 0.00 | 0.00 | 67 | 1020.6 |
| 20260504024720 | 13 | 173 | 0.0 | 0.0 | 0.00 | 0.00 | 0.00 | 68 | 1020.5 |
| 20260504024217 | 13 | 183 | 0.0 | 0.0 | 0.00 | 0.00 | 0.00 | 70 | 1020.4 |
| 20260504023714 | 13 | 179 | 0.0 | 1.6 | 0.00 | 0.00 | 0.00 | 69 | 1020.5 |
| 20260504023209 | 13 | 184 | 3.2 | 3.2 | 0.00 | 0.00 | 0.00 | 70 | 1020.4 |
| 20260504022706 | 14 | 179 | 0.0 | 0.0 | 0.00 | 0.00 | 0.00 | 68 | 1020.4 |
| 20260504022202 | 14 | 178 | 1.6 | 4.8 | 0.00 | 0.00 | 0.00 | 66 | 1020.3 |
| 20260504021700 | 14 | 168 | 1.6 | 3.2 | 0.00 | 0.00 | 0.00 | 67 | 1020.3 |
| 20260504021156 | 14 | 179 | 1.6 | 3.2 | 0.00 | 0.00 | 0.00 | 67 | 1020.1 |
| 20260504020653 | 14 | 174 | 0.0 | 0.0 | 0.00 | 0.00 | 0.00 | 69 | 1019.9 |
| 20260504020149 | 13 | 175 | 0.0 | 0.0 | 0.00 | 0.00 | 0.00 | 68 | 1020.1 |
| 20260504015646 | 14 | 175 | 0.0 | 0.0 | 0.00 | 0.00 | 0.00 | 68 | 1020.0 |
| 20260504015143 | 14 | 176 | 0.0 | 0.0 | 0.00 | 0.00 | 0.00 | 68 | 1020.0 |
| 20260504014638 | 14 | 180 | 0.0 | 0.0 | 0.00 | 0.00 | 0.00 | 67 | 1019.9 |
| 20260504014136 | 14 | 182 | 0.0 | 0.0 | 0.00 | 0.00 | 0.00 | 67 | 1020.0 |
| 20260504013633 | 15 | 179 | 0.0 | 0.0 | 0.00 | 0.00 | 0.00 | 66 | 1019.8 |
| 20260504013130 | 15 | 178 | 0.0 | 0.0 | 0.00 | 0.00 | 0.00 | 65 | 1019.9 |
| 20260504012627 | 15 | 177 | 0.0 | 0.0 | 0.00 | 0.00 | 0.00 | 64 | 1019.8 |
| 20260504012125 | 15 | 177 | 0.0 | 0.0 | 0.00 | 0.00 | 0.00 | 62 | 1020.0 |
| 20260504011622 | 15 | 177 | 0.0 | 0.0 | 0.00 | 0.00 | 0.00 | 61 | 1020.0 |
| 20260504011118 | 15 | 176 | 0.0 | 0.0 | 0.00 | 0.00 | 0.00 | 61 | 1019.9 |
| 20260504010614 | 16 | 177 | 0.0 | 0.0 | 0.00 | 0.00 | 0.00 | 60 | 1020.0 |
| 20260504010110 | 16 | 176 | 0.0 | 0.0 | 0.00 | 0.00 | 0.00 | 58 | 1020.0 |
| 20260504005607 | 16 | 176 | 0.0 | 0.0 | 0.00 | 0.00 | 0.00 | 56 | 1019.9 |
| 20260504005104 | 17 | 176 | 0.0 | 0.0 | 0.00 | 0.00 | 0.00 | 54 | 1020.1 |
| 20260504004602 | 17 | 178 | 0.0 | 0.0 | 0.00 | 0.00 | 0.00 | 52 | 1020.1 |
| 20260504004059 | 18 | 180 | 0.0 | 0.0 | 0.00 | 0.00 | 0.00 | 51 | 1020.0 |
| 20260504003555 | 18 | 175 | 0.0 | 0.0 | 0.00 | 0.00 | 0.00 | 51 | 1020.0 |
| 20260504003052 | 18 | 177 | 0.0 | 0.0 | 0.00 | 0.00 | 0.00 | 50 | 1019.9 |
| 20260504002549 | 19 | 179 | 0.0 | 1.6 | 0.00 | 0.00 | 0.00 | 48 | 1019.8 |
| 20260504002046 | 19 | 177 | 0.0 | 1.6 | 0.00 | 0.00 | 0.00 | 48 | 1019.8 |
| 20260504001544 | 19 | 181 | 1.6 | 1.6 | 0.00 | 0.00 | 0.00 | 47 | 1019.8 |
| 20260504001040 | 20 | 221 | 1.6 | 4.8 | 0.00 | 0.00 | 0.00 | 46 | 1019.9 |
| 20260504000537 | 20 | 178 | 1.6 | 3.2 | 0.00 | 0.00 | 0.00 | 46 | 1020.0 |
| 20260504000035 | 20 | 176 | 3.2 | 4.8 | 0.00 | 0.00 | 0.00 | 45 | 1020.1 |
| 20260503235533 | 20 | 179 | 0.0 | 0.0 | 0.00 | 0.00 | 0.00 | 43 | 1020.1 |
| 20260503235029 | 20 | 180 | 1.6 | 9.7 | 0.00 | 0.00 | 0.00 | 43 | 1020.1 |
| 20260503234527 | 21 | 215 | 6.4 | 9.7 | 0.00 | 0.00 | 0.00 | 42 | 1020.1 |
| 20260503234025 | 21 | 179 | 1.6 | 4.8 | 0.00 | 0.00 | 0.00 | 41 | 1020.2 |
| 20260503233521 | 21 | 178 | 8.0 | 14.5 | 0.00 | 0.00 | 0.00 | 42 | 1020.3 |
| 20260503233017 | 21 | 184 | 1.6 | 4.8 | 0.00 | 0.00 | 0.00 | 42 | 1020.2 |
| 20260503232514 | 21 | 198 | 4.8 | 9.7 | 0.00 | 0.00 | 0.00 | 41 | 1020.3 |
| 20260503232012 | 21 | 175 | 1.6 | 3.2 | 0.00 | 0.00 | 0.00 | 42 | 1020.3 |
| 20260503231510 | 21 | 193 | 3.2 | 4.8 | 0.00 | 0.00 | 0.00 | 41 | 1020.5 |
| 20260503231006 | 21 | 352 | 4.8 | 16.1 | 0.00 | 0.00 | 0.00 | 42 | 1020.5 |
| 20260503230503 | 21 | 271 | 1.6 | 4.8 | 0.00 | 0.00 | 0.00 | 42 | 1020.2 |
| 20260503230000 | 21 | 173 | 3.2 | 4.8 | 0.00 | 0.00 | 0.00 | 42 | 1020.2 |
| 20260503225456 | 21 | 172 | 1.6 | 4.8 | 0.00 | 0.00 | 0.00 | 42 | 1020.3 |
| 20260503224952 | 21 | 174 | 4.8 | 11.3 | 0.00 | 0.00 | 0.00 | 41 | 1020.4 |
| 20260503224449 | 21 | 168 | 1.6 | 4.8 | 0.00 | 0.00 | 0.00 | 42 | 1020.5 |
| 20260503223947 | 21 | 163 | 3.2 | 3.2 | 0.00 | 0.00 | 0.00 | 41 | 1020.5 |
| 20260503223445 | 21 | 202 | 4.8 | 12.9 | 0.00 | 0.00 | 0.00 | 41 | 1020.7 |
| 20260503222940 | 22 | 157 | 8.0 | 12.9 | 0.00 | 0.00 | 0.00 | 38 | 1020.8 |
| 20260503222439 | 22 | 170 | 1.6 | 3.2 | 0.00 | 0.00 | 0.00 | 40 | 1020.9 |